SCP
0 0 0 0 0 0 0 0 0 0 0 0 0 0 0 0 0 0 0 0 0 0 0 0 0 0 0 0 0 0 0 0 0 0 0 0 0 0 0 0 0 0 0
0 0 0 0 0 0 0 0 0 0 0 0 0 0 0 0 0 0 0 0 0 0 0 0 0 0 0 0 0 0 0 0 0 0 0 0 0 0 0 0 0 0 0
0 0 0 0 0 0 0 0 0 0 0 0 0 0 0 0 0 0 0 0 0 0 0 0 0 0 0 0 0 0 0 0 0 0 0 0 0 0 0 0 0 0 0
0 0 0 0 0 0 0 0 0 0 0 0 0 0 0 0 0 0 0 0 0 0 0 0 0 0 0 0 0 0 0 0 0 0 0 0 0 0 0 0 0 0 0
0 0 0 0 0 0 0 0 0 0 0 0 0 0 0 0 0 0 0 0 0 0 0 0 0 0 0 0 0 0 0 0 0 0 0 0 0 0 0 0 0 0 0
0 0 0 0 0 0 0 0 0 0 0 0 0 0 0 0 0 0 0 0 0 0 0 0 0 0 0 0 0 0 0 0 0 0 0 0 0 0 0 0 0 0 0
0 0 0 0 0 0 0 0 0 0 0 0 0 0 0 0 0 0 0 0 0 0 0 0 0 0 0 0 0 0 0 0 0 0 0 0 0 0 0 0 0 0 0
0 0 0 0 0 0 0 0 0 0 0 0 0 0 0 0 0 0 0 0 0 0 0 0 0 0 0 0 0 0 0 0 0 0 0 0 0 0 0 0 0 0 0
0 0 0 0 0 0 0 0 0 0 0 0 0 0 0 0 0 0 0 0 0 0 0 0 0 0 0 0 0 0 0 0 0 0 0 0 0 0 0 0 0 0 0
0 0 0 0 0 0 0 0 0 0 0 0 0 0 0 0 0 0 0 0 0 0 0 0 0 0 0 0 0 0 0 0 0 0 0 0 0 0 0 0 0 0 0
0 0 0 0 0 0 0 0 0 0 0 0 0 0 0 0 0 0 0 0 0 0 0 0 0 0 0 0 0 0 0 0 0 0 0 0 0 0 0 0 0 0 0
0 0 0 0 0 0 0 0 0 0 0 0 0 0 0 0 0 0 0 0 0 0 0 0 0 0 0 0 0 0 0 0 0 0 0 0 0 0 0 0 0 0 0
0 0 0 0 0 0 0 0 0 0 0 0 0 0 0 0 0 0 0 0 0 0 0 0 0 0 0 0 0 0 0 0 0 0 0 0 0 0 0 0 0 0 0
0 0 0 0 0 0 0 0 0 0 0 0 0 0 0 0 0 0 0 0 0 0 0 0 0 0 0 0 0 0 0 0 0 0 0 0 0 0 0 0 0 0 0
0 0 0 0 0 0 0 0 0 0 0 0 0 0 0 0 0 0 0 0 0 0 0 0 0 0 0 0 0 0 0 0 0 0 0 0 0 0 0 0 0 0 0
0 0 0 0 0 0 0 0 0 0 0 0 0 0 0 0 0 0 0 0 0 0 0 0 0 0 0 0 0 0 0 0 0 0 0 0 0 0 0 0 0 0 0
0 0 0 0 0 0 0 0 0 0 0 0 0 0 0 0 0 0 0 0 0 0 0 0 0 0 0 0 0 0 0 0 0 0 0 0 0 0 0 0 0 0 0
0 0 0 0 0 0 0 0 0 0 0 0 0 0 0 0 0 0 0 0 0 0 0 0 0 0 0 0 0 0 0 0 0 0 0 0 0 0 0 0 0 0 0
0 0 0 0 0 0 0 0 0 0 0 0 0 0 0 0 0 0 0 0 0 0 0 0 0 0 0 0 0 0 0 0 0 0 0 0 0 0 0 0 0 0 0
0 0 0 0 0 0 0 0 0 0 0 0 0 0 0 0 0 0 0 0 0 0 0 0 0 0 0 0 0 0 0 0 0 0 0 0 0 0 0 0 0 0 0
0 0 0 0 0 0 0 0 0 0 0 0 0 0 0 0 0 0 0 0 0 0 0 0 0 0 0 0 0 0 0 0 0 0 0 0 0 0 0 0 0 0 0
0 0 0 0 0 0 0 0 0 0 0 0 0 0 0 0 0 0 0 0 0 0 0 0 0 0 0 0 0 0 0 0 0 0 0 0 0 0 0 0 0 0 0
0 0 0 0 0 0 0 0 0 0 0 0 0 0 0 0 0 0 0 0 0 0 0 0 0 0 0 0 0 0 0 0 0 0 0 0 0 0 0 0 0 0 0
0 0 0 0 0 0 0 0 0 0 0 0 0 0 0 0 0 0 0 0 0 0 0 0 0 0 0 0 0 0 0 0 0 0 0 0 0 0 0 0 0 0 0
0 0 0 0 0 0 0 0 0 0 0 0 0 0 0 0 0 0 0 0 0 0 0 0 0 0 0 0 0 0 0 0 0 0 0 0 0 0 0 0 0 0 0
0 0 0 0 0 0 0 0 0 0 0 0 0 0 0 0 0 0 0 0 0 0 0 0 0 0 0 0 0 0 0 -0 0 0 0 0 0 0 0 0 0 0 0
Wind_Speed
4 3 1 1 2 3 3 3 4 4 5 6 6 6 6 6 6 6 6 6 6 6 6 6 7 7 5 5 6 6 6 6 7 5 3 3 4 6 4 7 7 8 9
4 3 1 1 1 2 3 4 4 5 5 5 6 6 6 6 6 6 6 6 6 6 6 6 6 5 7 6 5 7 6 7 6 7 4 4 5 5 5 6 6 6 7
5 3 2 1 1 1 2 3 4 4 5 5 5 5 5 5 5 5 5 5 5 5 5 5 6 6 6 5 6 6 5 5 6 6 5 3 3 3 4 4 6 6 7
6 4 4 4 3 2 1 0 1 2 3 4 4 5 5 5 5 5 5 5 5 4 4 5 5 5 6 5 5 5 5 5 5 5 4 3 3 3 3 4 5 5 6
7 6 6 4 4 3 2 1 1 0 1 2 3 3 4 4 4 4 5 4 5 5 5 5 4 1 2 2 3 4 5 4 4 4 4 3 3 3 4 4 4 4 5
8 8 7 6 6 5 4 3 2 1 0 1 2 3 3 2 4 1 3 4 5 5 5 5 4 5 5 5 4 4 5 4 4 4 3 4 4 4 3 3 3 3 4
9 9 8 8 7 6 5 4 3 2 1 0 1 1 2 3 3 4 5 4 5 4 4 4 3 3 5 6 7 7 7 6 6 6 5 4 3 3 3 4 3 4 4
9 9 8 8 8 7 6 6 4 3 2 1 1 1 0 2 1 3 5 8 6 5 5 5 5 5 4 2 3 4 3 3 3 5 5 4 3 2 3 3 3 3 3
9 9 8 8 8 7 7 7 6 5 4 3 3 2 1 2 3 1 5 6 5 5 4 4 4 4 6 1 4 3 2 2 2 2 5 4 3 2 3 3 3 3 3
8 8 8 8 8 8 8 7 6 5 4 3 4 4 4 3 4 2 4 3 4 4 4 4 1 1 5 3 5 2 2 0 1 2 3 4 4 4 6 6 4 4 3
7 8 8 8 8 8 7 6 6 5 5 5 5 4 5 5 4 4 4 3 2 3 3 3 3 4 2 2 4 3 3 3 2 2 2 2 2 1 1 2 3 3 3
6 6 7 8 7 6 7 6 6 6 5 5 5 5 4 5 6 5 6 5 4 1 2 2 4 5 4 2 0 3 2 3 1 1 1 2 2 3 2 2 2 2 2
4 5 6 6 6 7 7 7 6 6 5 5 5 5 4 4 4 5 6 6 5 3 4 7 7 5 5 4 5 2 2 1 1 1 2 3 3 3 3 2 2 2 1
4 4 5 5 6 6 5 6 6 6 6 5 5 5 4 4 5 4 2 4 4 4 5 7 7 5 3 5 4 2 1 3 2 2 2 2 2 2 2 2 2 2 1
3 3 4 4 5 5 5 6 6 7 7 6 5 4 5 5 7 8 5 4 3 4 3 3 3 3 3 3 3 3 3 2 2 2 2 2 2 2 2 3 3 2 2
2 3 3 3 3 3 3 4 5 5 8 9 9 7 5 7 7 8 9 8 7 3 2 4 4 4 4 3 3 3 3 3 3 3 3 3 3 3 2 2 2 2 2
2 2 2 2 3 3 3 3 3 4 5 9 11 11 10 9 9 8 8 9 7 4 5 5 5 4 4 4 4 4 4 4 4 3 3 3 3 3 3 3 3 3 3
1 2 1 2 2 2 3 3 3 4 4 5 8 10 10 10 10 8 4 4 7 6 6 6 5 5 4 4 4 4 4 4 3 3 4 4 4 4 3 3 3 5 4
0 1 1 2 2 2 3 3 3 4 4 4 5 6 6 6 9 9 7 7 7 6 6 6 5 5 4 4 4 4 4 4 4 3 4 4 4 4 4 4 3 4 4
1 2 1 1 2 2 2 3 3 3 4 4 5 5 4 4 6 7 7 7 6 6 5 5 5 5 5 5 4 4 3 3 4 4 4 4 4 4 4 4 4 4 4
2 4 3 2 2 2 2 3 3 3 4 4 5 6 7 5 5 6 6 6 5 5 5 5 5 5 5 4 4 4 4 4 4 4 4 4 4 4 4 4 4 4 4
2 2 2 2 2 2 2 3 3 3 4 4 4 5 3 4 4 5 5 5 5 4 4 4 4 4 4 4 4 4 4 4 4 4 4 4 3 3 4 4 4 5 5
2 3 3 3 3 3 3 3 3 3 3 3 4 4 3 3 4 4 4 4 4 4 4 4 4 4 4 3 4 4 4 4 4 4 4 4 4 3 3 4 5 5 5
3 3 3 3 3 3 3 3 3 3 3 3 3 3 3 3 3 3 3 3 3 4 3 4 4 5 5 4 3 3 4 5 5 3 4 4 4 4 4 4 4 6 5
3 4 4 3 4 4 3 3 3 3 3 3 3 3 3 3 3 3 3 3 3 3 3 3 3 3 4 5 5 5 6 6 6 6 3 3 4 4 4 5 4 5 5
4 4 4 4 4 4 4 4 4 4 4 3 3 3 3 3 3 3 3 2 2 3 3 3 3 3 3 4 6 7 5 5 5 7 5 3 4 4 4 3 5 5 5
Wind_Direction
52 56 74 117 161 177 181 187 188 184 187 187 181 179 175 175 179 181 194 193 207 213 215 224 229 229 228 227 226 231 233 234 249 250 231 240 234 248 206 230 231 210 202
24 21 21 20 190 199 182 180 185 183 186 182 175 173 167 171 176 180 186 191 202 208 210 218 225 222 228 228 229 235 237 235 244 251 235 230 236 252 253 229 226 228 235
17 9 17 19 299 235 200 187 186 180 175 176 178 174 171 172 175 184 190 193 199 206 205 209 218 220 225 225 230 236 239 239 238 246 243 221 222 224 246 244 237 232 239
20 19 26 18 355 341 338 233 195 180 180 177 179 182 183 183 186 186 194 193 194 197 208 215 219 220 228 226 231 236 238 243 240 243 243 224 214 203 222 231 232 222 233
31 30 28 25 19 14 15 8 349 185 209 191 192 191 181 195 192 193 195 197 203 196 204 216 218 250 342 274 263 250 240 242 243 245 245 233 213 200 217 224 239 237 240
36 32 25 27 31 21 15 24 33 26 296 225 214 198 189 189 119 178 240 200 209 203 199 204 184 194 191 213 257 282 283 268 265 255 251 246 233 221 219 222 234 235 237
38 35 29 32 32 24 21 33 34 35 35 315 239 231 206 135 145 199 228 230 210 210 205 193 189 184 204 201 191 213 230 244 264 283 276 268 261 229 213 221 232 249 254
35 33 29 27 29 28 29 27 23 24 27 13 16 343 177 114 128 217 213 225 208 201 205 204 199 195 198 243 205 218 219 209 227 255 284 297 298 265 227 232 237 247 259
33 29 27 27 28 28 29 23 19 26 29 24 30 19 21 94 62 250 235 215 206 200 196 206 226 206 113 273 252 236 228 196 163 263 321 327 333 290 261 233 218 225 239
29 28 27 27 29 27 24 19 18 23 28 33 39 24 23 29 50 16 266 223 205 189 185 180 130 355 119 219 255 259 267 285 280 211 231 225 242 212 212 241 244 241 248
25 30 31 29 34 31 27 23 20 27 33 41 47 43 37 26 37 35 336 275 213 192 182 178 137 129 146 213 276 323 20 337 314 318 324 335 326 319 255 252 259 261 267
30 35 36 33 31 31 32 29 27 27 35 39 39 42 36 32 27 33 24 10 340 167 145 131 109 123 133 144 277 58 54 280 296 328 353 13 7 1 350 335 313 291 288
31 40 40 40 42 34 30 31 30 29 29 28 28 29 30 28 35 43 51 48 29 51 75 69 83 112 145 130 94 96 227 253 5 4 22 30 21 5 356 351 339 337 328
25 33 43 41 46 46 35 32 32 26 26 27 27 24 26 33 25 21 66 100 106 105 107 107 107 94 101 93 128 147 72 42 19 27 32 38 26 15 12 0 356 350 332
15 29 43 49 45 45 54 39 31 41 23 11 16 20 20 29 19 5 11 52 62 71 101 117 119 123 114 102 96 78 64 68 53 42 31 31 31 27 27 17 5 353 348
9 23 29 47 57 49 60 88 71 46 38 33 26 18 54 45 32 45 56 61 63 59 86 90 82 74 67 60 66 71 58 46 35 32 32 26 18 15 18 17 1 350 349
10 26 34 38 56 61 52 53 86 109 92 59 45 41 46 47 52 59 71 74 59 57 80 76 71 67 64 58 51 50 47 38 27 26 28 23 14 9 6 2 357 350 349
41 69 44 68 55 59 63 60 54 59 78 81 70 56 53 56 54 47 48 90 72 60 62 63 63 60 55 52 48 44 42 37 28 24 23 19 10 4 4 1 2 356 345
119 93 90 79 80 74 76 76 72 71 70 74 87 87 76 84 73 48 39 62 65 60 56 54 51 48 46 44 41 37 37 34 25 21 24 17 10 4 5 359 360 357 337
109 71 36 117 115 107 95 85 81 82 80 72 66 59 66 67 65 59 52 54 60 58 55 54 49 44 42 40 37 30 30 30 19 18 17 12 6 359 357 356 354 348 351
152 140 171 171 114 106 99 91 90 91 87 81 69 47 20 59 65 63 59 54 53 53 51 50 48 42 38 33 29 29 28 27 19 9 5 3 360 357 352 349 348 350 352
176 161 163 137 131 127 120 115 109 106 102 98 100 97 60 67 71 70 66 62 60 55 52 53 53 46 36 31 26 25 24 24 20 10 3 359 356 355 354 352 352 357 358
191 173 165 153 145 139 166 141 132 126 122 116 113 108 99 85 83 79 74 66 59 57 54 54 59 55 49 44 35 20 19 22 12 1 354 353 352 354 357 4 5 4 11
197 190 178 171 171 177 171 161 154 147 146 139 130 122 117 110 100 92 85 76 71 66 59 57 53 56 51 41 37 33 27 8 343 348 356 347 356 4 7 8 13 16 17
205 197 190 188 187 189 184 179 175 169 168 167 155 142 139 135 128 121 108 97 91 83 74 66 62 53 44 43 36 38 25 358 347 339 338 360 16 23 20 23 26 30 27
206 204 199 196 197 198 197 193 191 186 184 183 177 160 156 156 154 145 134 131 126 114 103 83 66 56 41 45 46 28 11 3 356 331 323 16 35 32 24 38 38 43 46